Weather History for Hobart, OK

Change the Weather History Date:

Saturday, December 21, 2013

  Actual Average Record
Temperature  
Mean Temperature 29 °F -  
Max Temperature 30 °F 47 °F 69 °F (2003)
Min Temperature 27 °F 24 °F 10 °F (1998)
Degree Days  
Heating Degree Days 36    
Moisture  
Dew Point 28 °F    
Average Humidity 92    
Maximum Humidity 100    
Minimum Humidity 81    
Precipitation  
Precipitation 0.35 in - - ()
Sea Level Pressure  
Sea Level Pressure 29.70 in    
Wind  
Wind Speed 11 mph (NNE)    
Max Wind Speed 21 mph    
Max Gust Speed 29 mph    
Visibility 5 miles    
Events Rain , Snow    
Averages and records for this station are not official NWS values.
T = Trace of Precipitation, MM = Missing Value Source: NWS Daily Summary

Daily Weather History Graph

Daily Weather History Graph

Search for Another Location

Airport:

Trip Planner

Search our weather history database for the weather conditions in past years. The results will help you decide how hot, cold, wet, or windy it might be!

Date:

Astronomy

Dec. 21, 2013 Rise Set
Actual Time 7:40 AM CST 5:28 PM CST
Civil Twilight 7:12 AM CST 5:56 PM CST
Nautical Twilight 6:40 AM CST 6:28 PM CST
Astronomical Twilight 6:09 AM CST 6:59 PM CST
Moon 9:37 PM CST (12/21) 10:15 AM CST (12/21)
Length of Visible Light 10h 44m
Length of Day
9h 48m
Waning Gibbous, 84% of the Moon is Illuminated
Dec 21
Waning Gibbous
Dec 25
Last Quarter
Jan 1
New
Jan 7
First Quarter
Jan 15
Full

Hourly Weather History & Observations

Time (CST) Temp. Windchill Dew Point Humidity Pressure Visibility Wind Dir Wind Speed Gust Speed Precip Events Conditions
12:06 AM 30.2 °F 20.2 °F 28.4 °F 93% 29.78 in 5.0 mi NNE 12.7 mph - 0.01 in Rain Light Freezing Rain
12:18 AM 30.2 °F 20.8 °F 28.4 °F 93% 29.79 in 5.0 mi NNE 11.5 mph - 0.03 in Rain Light Freezing Rain
12:53 AM 30.9 °F 21.2 °F 28.9 °F 92% 29.82 in 3.0 mi NNE 12.7 mph - 0.11 in Rain Light Freezing Rain
1:21 AM 30.2 °F 21.9 °F 28.4 °F 93% 29.79 in 6.0 mi NNE 9.2 mph - 0.04 in Rain Light Freezing Rain
1:28 AM 30.2 °F 23.4 °F 28.4 °F 93% 29.80 in 7.0 mi NE 6.9 mph - 0.04 in   Overcast
1:36 AM 30.2 °F 22.6 °F 28.4 °F 93% 29.79 in 6.0 mi NE 8.1 mph - 0.05 in Rain Light Freezing Rain
1:46 AM 30.2 °F 21.9 °F 28.4 °F 93% 29.78 in 5.0 mi NE 9.2 mph - 0.06 in Rain Light Freezing Rain
1:53 AM 30.9 °F 22.8 °F 28.9 °F 92% 29.81 in 5.0 mi NE 9.2 mph - 0.07 in Rain Light Freezing Rain
1:58 AM 30.2 °F 21.9 °F 28.4 °F 93% 29.79 in 6.0 mi ENE 9.2 mph - 0.01 in   Overcast
2:12 AM 30.2 °F 21.9 °F 28.4 °F 93% 29.79 in 9.0 mi NE 9.2 mph - 0.01 in Rain Light Freezing Rain
2:25 AM 30.2 °F 20.2 °F 28.4 °F 93% 29.75 in 8.0 mi NE 12.7 mph - 0.01 in   Overcast
2:49 AM 30.2 °F 21.3 °F 28.4 °F 93% 29.77 in 9.0 mi NE 10.4 mph - 0.01 in   Overcast
2:53 AM 30.0 °F 21.1 °F 28.0 °F 92% 29.80 in 8.0 mi NE 10.4 mph - 0.01 in   Overcast
3:53 AM 30.0 °F 20.0 °F 28.9 °F 96% 29.78 in 7.0 mi ENE 12.7 mph - 0.02 in   Overcast
4:53 AM 30.0 °F 18.3 °F 28.0 °F 92% 29.73 in 10.0 mi NE 17.3 mph - 0.01 in   Overcast
5:37 AM 30.2 °F 19.8 °F 28.4 °F 93% 29.69 in 7.0 mi NE 13.8 mph - 0.02 in Rain Light Freezing Rain
5:53 AM 30.0 °F 19.1 °F 28.0 °F 92% 29.70 in 8.0 mi NE 15.0 mph 28.8 mph 0.02 in Rain Light Freezing Rain
6:15 AM 30.2 °F 20.2 °F 28.4 °F 93% 29.69 in 10.0 mi NE 12.7 mph 20.7 mph 0.00 in   Overcast
6:53 AM 30.0 °F 20.0 °F 27.0 °F 88% 29.68 in 10.0 mi NNE 12.7 mph - 0.00 in   Overcast
7:32 AM 28.4 °F 17.0 °F 28.4 °F 100% 29.66 in 2.5 mi NE 15.0 mph - 0.00 in Rain Light Freezing Rain
7:53 AM 28.9 °F 18.6 °F 28.0 °F 96% 29.71 in 2.0 mi ENE 12.7 mph - 0.00 in Rain Light Freezing Rain
8:53 AM 30.0 °F 20.0 °F 28.0 °F 92% 29.71 in 1.2 mi NE 12.7 mph - 0.01 in Rain Light Freezing Rain
9:53 AM 30.0 °F 20.0 °F 28.9 °F 96% 29.70 in 2.0 mi NE 12.7 mph - 0.04 in Rain Light Freezing Rain
10:37 AM 30.2 °F 20.8 °F 28.4 °F 93% 29.69 in 1.8 mi NE 11.5 mph - 0.01 in Rain Light Freezing Rain
10:53 AM 30.0 °F 19.5 °F 28.9 °F 96% 29.70 in 1.8 mi ENE 13.8 mph - 0.04 in Rain Light Freezing Rain
10:57 AM 30.2 °F 18.9 °F 28.4 °F 93% 29.64 in 2.0 mi NE 16.1 mph - 0.00 in Rain Light Freezing Rain
11:08 AM 30.2 °F 18.9 °F 28.4 °F 93% 29.62 in 4.0 mi ENE 16.1 mph - 0.00 in Rain Light Freezing Rain
11:24 AM 30.2 °F 22.6 °F 28.4 °F 93% 29.66 in 9.0 mi NE 8.1 mph - 0.00 in   Overcast
11:44 AM 30.2 °F 19.8 °F 28.4 °F 93% 29.63 in 1.8 mi ENE 13.8 mph - 0.01 in   Overcast
11:53 AM 30.0 °F 20.0 °F 28.9 °F 96% 29.65 in 1.8 mi NE 12.7 mph - 0.01 in   Overcast
12:21 PM 30.2 °F 21.3 °F 28.4 °F 93% 29.63 in 2.5 mi ENE 10.4 mph - 0.00 in   Overcast
12:38 PM 30.2 °F 20.8 °F 28.4 °F 93% 29.62 in 3.0 mi East 11.5 mph - 0.00 in   Overcast
12:46 PM 30.2 °F 20.2 °F 28.4 °F 93% 29.58 in 2.5 mi ENE 12.7 mph - 0.00 in   Overcast
12:53 PM 30.0 °F 18.7 °F 28.9 °F 96% 29.59 in 2.0 mi ENE 16.1 mph - 0.00 in   Overcast
1:10 PM 30.2 °F 22.6 °F 28.4 °F 93% 29.59 in 4.0 mi ENE 8.1 mph - N/A   Overcast
1:41 PM 30.2 °F 26.7 °F 28.4 °F 93% 29.60 in 1.8 mi NNE 3.5 mph - N/A   Overcast
1:49 PM 30.2 °F 25.4 °F 28.4 °F 93% 29.59 in 1.0 mi NNE 4.6 mph - 0.00 in Rain Light Freezing Rain
1:53 PM 30.0 °F 25.2 °F 28.0 °F 92% 29.62 in 1.0 mi North 4.6 mph - 0.00 in Rain Light Freezing Rain
2:25 PM 30.2 °F 25.4 °F 28.4 °F 93% 29.59 in 2.5 mi North 4.6 mph - 0.00 in Rain Light Freezing Rain
2:40 PM 30.2 °F - 28.4 °F 93% 29.60 in 3.0 mi Calm Calm - 0.00 in   Overcast
2:53 PM 30.0 °F 26.5 °F 28.0 °F 92% 29.64 in 5.0 mi NW 3.5 mph - 0.00 in   Overcast
3:12 PM 30.2 °F 26.7 °F 28.4 °F 93% 29.61 in 2.0 mi NNW 3.5 mph - N/A   Overcast
3:32 PM 30.2 °F 23.4 °F 28.4 °F 93% 29.61 in 1.5 mi NNW 6.9 mph - N/A   Overcast
3:44 PM 30.2 °F 23.4 °F 28.4 °F 93% 29.61 in 2.5 mi NNW 6.9 mph - N/A   Overcast
3:51 PM 30.2 °F 22.6 °F 28.4 °F 93% 29.61 in 4.0 mi NNW 8.1 mph - N/A   Overcast
3:53 PM 30.0 °F 22.4 °F 28.9 °F 96% 29.64 in 4.0 mi North 8.1 mph - N/A   Overcast
4:53 PM 30.0 °F 21.7 °F 28.0 °F 92% 29.67 in 10.0 mi NNW 9.2 mph - N/A   Overcast
5:01 PM 30.2 °F 21.3 °F 28.4 °F 93% 29.63 in 10.0 mi NNW 10.4 mph - N/A   Overcast
5:53 PM 30.0 °F 20.0 °F 27.0 °F 88% 29.69 in 10.0 mi NNW 12.7 mph - N/A   Overcast
6:10 PM 30.2 °F 20.8 °F 26.6 °F 86% 29.65 in 10.0 mi North 11.5 mph - N/A   Overcast
6:53 PM 28.9 °F 21.9 °F 26.1 °F 89% 29.71 in 10.0 mi North 6.9 mph - N/A   Overcast
7:53 PM 28.9 °F 21.9 °F 26.1 °F 89% 29.74 in 10.0 mi NNW 6.9 mph - 0.01 in   Overcast
8:53 PM 30.0 °F 21.7 °F 27.0 °F 88% 29.79 in 10.0 mi NW 9.2 mph - N/A   Overcast
9:03 PM 30.2 °F 21.9 °F 26.6 °F 86% 29.76 in 10.0 mi NNW 9.2 mph - N/A   Overcast
9:30 PM 28.4 °F 18.0 °F 26.6 °F 93% 29.79 in 2.0 mi NNW 12.7 mph - 0.00 in Snow Light Snow
9:35 PM 28.4 °F 18.0 °F 26.6 °F 93% 29.79 in 3.0 mi NNW 12.7 mph - 0.00 in Snow Light Snow
9:53 PM 28.9 °F 19.2 °F 25.0 °F 85% 29.85 in 9.0 mi NNW 11.5 mph - 0.00 in Snow Light Snow
10:53 PM 28.0 °F 14.6 °F 24.1 °F 85% 29.84 in 10.0 mi NNW 20.7 mph - 0.00 in   Scattered Clouds
11:53 PM 27.0 °F 16.1 °F 21.9 °F 81% 29.89 in 10.0 mi NW 12.7 mph - N/A   Clear